| time (UTC) | temp F | wind direction | speed MPH | gust MPH | rain 1hr in | rain 24hr in | rain mn in | humidity % | barometer mb |
| 20260509000804 | 64 | 64 | 2.0 | 3.0 | 0.00 | 0.00 | 0.00 | 82 | 1011.8 |
| 20260509000304 | 64 | 63 | 1.0 | 3.0 | 0.00 | 0.00 | 0.00 | 82 | 1011.9 |
| 20260508235804 | 64 | 63 | 1.0 | 2.0 | 0.00 | 0.00 | 0.00 | 81 | 1012.0 |
| 20260508235306 | 64 | 63 | 1.0 | 2.0 | 0.00 | 0.00 | 0.00 | 81 | 1012.0 |
| 20260508234804 | 65 | 63 | 0.0 | 2.0 | 0.00 | 0.00 | 0.00 | 81 | 1012.0 |
| 20260508234304 | 65 | 64 | 1.0 | 3.0 | 0.00 | 0.00 | 0.00 | 81 | 1011.9 |
| 20260508233804 | 65 | 53 | 2.0 | 5.0 | 0.00 | 0.00 | 0.00 | 81 | 1011.9 |
| 20260508233305 | 65 | 63 | 1.0 | 3.0 | 0.00 | 0.00 | 0.00 | 81 | 1011.9 |
| 20260508232804 | 65 | 63 | 1.0 | 3.0 | 0.00 | 0.00 | 0.00 | 81 | 1012.0 |
| 20260508232307 | 65 | 62 | 1.0 | 2.0 | 0.00 | 0.00 | 0.00 | 81 | 1011.9 |
| 20260508231304 | 65 | 62 | 0.0 | 3.0 | 0.00 | 0.00 | 0.00 | 81 | 1012.2 |
| 20260508230804 | 65 | 63 | 1.0 | 3.0 | 0.00 | 0.00 | 0.00 | 81 | 1012.3 |
| 20260508230305 | 65 | 63 | 1.0 | 3.0 | 0.00 | 0.00 | 0.00 | 81 | 1012.3 |
| 20260508225804 | 65 | 63 | 0.0 | 2.0 | 0.00 | 0.00 | 0.00 | 81 | 1012.2 |
| 20260508225306 | 65 | 63 | 2.0 | 5.0 | 0.00 | 0.00 | 0.00 | 81 | 1012.3 |
| 20260508224804 | 65 | 69 | 1.0 | 3.0 | 0.00 | 0.00 | 0.00 | 81 | 1012.2 |
| 20260508224304 | 65 | 72 | 0.0 | 3.0 | 0.00 | 0.00 | 0.00 | 81 | 1012.2 |
| 20260508223304 | 65 | 69 | 1.0 | 3.0 | 0.00 | 0.00 | 0.00 | 81 | 1012.3 |
| 20260508222804 | 65 | 69 | 1.0 | 3.0 | 0.00 | 0.00 | 0.00 | 81 | 1012.2 |
| 20260508222306 | 65 | 69 | 2.0 | 3.0 | 0.00 | 0.00 | 0.00 | 81 | 1012.2 |
| 20260508221304 | 65 | 69 | 1.0 | 3.0 | 0.00 | 0.00 | 0.00 | 81 | 1012.3 |
| 20260508220819 | 65 | 69 | 1.0 | 3.0 | 0.00 | 0.00 | 0.00 | 81 | 1012.4 |
| 20260508220305 | 65 | 69 | 1.0 | 3.0 | 0.00 | 0.00 | 0.00 | 81 | 1012.4 |
| 20260508215803 | 65 | 69 | 1.0 | 5.0 | 0.00 | 0.00 | 0.00 | 81 | 1012.4 |
| 20260508215306 | 65 | 114 | 1.0 | 5.0 | 0.00 | 0.00 | 0.00 | 80 | 1012.5 |
| 20260508214304 | 65 | 130 | 1.0 | 3.0 | 0.00 | 0.00 | 0.00 | 80 | 1012.4 |
| 20260508213303 | 65 | 130 | 3.0 | 5.0 | 0.00 | 0.00 | 0.00 | 80 | 1012.5 |
| 20260508212804 | 65 | 126 | 2.0 | 5.0 | 0.00 | 0.00 | 0.00 | 80 | 1012.5 |
| 20260508212306 | 65 | 129 | 1.0 | 5.0 | 0.00 | 0.00 | 0.00 | 80 | 1012.4 |
| 20260508211304 | 65 | 126 | 1.0 | 5.0 | 0.00 | 0.00 | 0.00 | 80 | 1012.3 |
| 20260508210803 | 65 | 131 | 1.0 | 3.0 | 0.00 | 0.00 | 0.00 | 79 | 1012.3 |
| 20260508210304 | 65 | 116 | 2.0 | 5.0 | 0.00 | 0.00 | 0.00 | 79 | 1012.3 |
| 20260508205804 | 65 | 131 | 2.0 | 6.0 | 0.00 | 0.00 | 0.00 | 79 | 1012.3 |
| 20260508205306 | 65 | 130 | 2.0 | 3.0 | 0.00 | 0.00 | 0.00 | 79 | 1012.3 |
| 20260508204304 | 65 | 130 | 2.0 | 5.0 | 0.00 | 0.00 | 0.00 | 78 | 1012.3 |
| 20260508203304 | 66 | 130 | 3.0 | 6.0 | 0.00 | 0.00 | 0.00 | 77 | 1012.3 |
| 20260508202804 | 66 | 130 | 3.0 | 6.0 | 0.00 | 0.00 | 0.00 | 77 | 1012.1 |
| 20260508202306 | 66 | 127 | 2.0 | 6.0 | 0.00 | 0.00 | 0.00 | 77 | 1012.1 |
| 20260508201804 | 66 | 127 | 3.0 | 6.0 | 0.00 | 0.00 | 0.00 | 77 | 1012.0 |
| 20260508201304 | 66 | 126 | 5.0 | 9.0 | 0.00 | 0.00 | 0.00 | 77 | 1011.8 |
| 20260508200803 | 66 | 112 | 3.0 | 6.0 | 0.00 | 0.00 | 0.00 | 77 | 1011.8 |
| 20260508200303 | 66 | 128 | 2.0 | 5.0 | 0.00 | 0.00 | 0.00 | 77 | 1011.8 |
| 20260508195804 | 66 | 101 | 4.0 | 6.0 | 0.00 | 0.00 | 0.00 | 77 | 1011.8 |
| 20260508195306 | 66 | 121 | 5.0 | 7.0 | 0.00 | 0.00 | 0.00 | 77 | 1011.8 |
| 20260508194804 | 66 | 128 | 2.0 | 7.0 | 0.00 | 0.00 | 0.00 | 77 | 1011.7 |
| 20260508194304 | 66 | 142 | 5.0 | 8.0 | 0.00 | 0.01 | 0.00 | 76 | 1011.7 |
| 20260508193803 | 66 | 102 | 5.0 | 8.0 | 0.00 | 0.01 | 0.00 | 76 | 1011.6 |
| 20260508193304 | 66 | 135 | 5.0 | 7.0 | 0.00 | 0.01 | 0.00 | 76 | 1011.6 |
| 20260508192306 | 67 | 134 | 5.0 | 8.0 | 0.00 | 0.01 | 0.00 | 76 | 1011.6 |
| 20260508191804 | 67 | 141 | 5.0 | 7.0 | 0.00 | 0.01 | 0.00 | 75 | 1011.6 |
| 20260508191305 | 67 | 106 | 6.0 | 8.0 | 0.00 | 0.02 | 0.00 | 75 | 1011.5 |
| 20260508190803 | 67 | 146 | 5.0 | 8.0 | 0.00 | 0.02 | 0.00 | 75 | 1011.4 |
| 20260508190304 | 67 | 141 | 6.0 | 7.0 | 0.00 | 0.02 | 0.00 | 75 | 1011.3 |
| 20260508185306 | 67 | 103 | 6.0 | 10.0 | 0.00 | 0.02 | 0.00 | 75 | 1011.3 |
| 20260508184804 | 68 | 89 | 5.0 | 9.0 | 0.00 | 0.02 | 0.00 | 75 | 1011.2 |
| 20260508184304 | 68 | 128 | 6.0 | 9.0 | 0.00 | 0.02 | 0.00 | 74 | 1011.2 |
| 20260508183803 | 68 | 131 | 5.0 | 8.0 | 0.00 | 0.02 | 0.00 | 74 | 1011.1 |
| 20260508182803 | 68 | 122 | 6.0 | 9.0 | 0.00 | 0.02 | 0.00 | 73 | 1011.0 |
| 20260508182306 | 68 | 131 | 5.0 | 8.0 | 0.00 | 0.02 | 0.00 | 72 | 1010.9 |
| 20260508181804 | 68 | 125 | 5.0 | 10.0 | 0.00 | 0.02 | 0.00 | 72 | 1010.9 |
| 20260508181304 | 69 | 122 | 3.0 | 7.0 | 0.00 | 0.02 | 0.00 | 71 | 1010.7 |
| 20260508180804 | 69 | 141 | 5.0 | 9.0 | 0.00 | 0.02 | 0.00 | 70 | 1010.7 |
| 20260508180304 | 69 | 77 | 6.0 | 9.0 | 0.00 | 0.02 | 0.00 | 69 | 1010.7 |
| 20260508175803 | 69 | 99 | 5.0 | 9.0 | 0.00 | 0.02 | 0.00 | 68 | 1010.8 |
| 20260508175306 | 69 | 85 | 7.0 | 12.0 | 0.00 | 0.02 | 0.00 | 67 | 1010.8 |
| 20260508174804 | 69 | 93 | 6.0 | 12.0 | 0.00 | 0.02 | 0.00 | 65 | 1010.9 |
| 20260508174304 | 70 | 121 | 7.0 | 9.0 | 0.00 | 0.02 | 0.00 | 66 | 1010.9 |
| 20260508173805 | 70 | 117 | 5.0 | 9.0 | 0.00 | 0.02 | 0.00 | 65 | 1010.9 |
| 20260508173304 | 70 | 116 | 5.0 | 8.0 | 0.00 | 0.02 | 0.00 | 65 | 1010.8 |
| 20260508172307 | 70 | 102 | 5.0 | 8.0 | 0.00 | 0.02 | 0.00 | 66 | 1010.8 |
| 20260508171805 | 70 | 72 | 3.0 | 9.0 | 0.00 | 0.02 | 0.00 | 65 | 1010.8 |
| 20260508171304 | 71 | 67 | 6.0 | 9.0 | 0.00 | 0.02 | 0.00 | 64 | 1010.7 |
| 20260508165804 | 72 | 89 | 5.0 | 8.0 | 0.00 | 0.02 | 0.00 | 61 | 1010.8 |
| 20260508165306 | 72 | 96 | 6.0 | 12.0 | 0.00 | 0.02 | 0.00 | 61 | 1010.8 |
| 20260508164805 | 72 | 87 | 5.0 | 8.0 | 0.00 | 0.02 | 0.00 | 63 | 1010.8 |
| 20260508163805 | 71 | 58 | 4.0 | 7.0 | 0.00 | 0.02 | 0.00 | 65 | 1010.7 |
| 20260508163305 | 71 | 44 | 6.0 | 12.0 | 0.00 | 0.02 | 0.00 | 63 | 1010.8 |
| 20260508162307 | 72 | 112 | 5.0 | 8.0 | 0.00 | 0.02 | 0.00 | 63 | 1010.9 |
| 20260508161805 | 72 | 103 | 6.0 | 8.0 | 0.00 | 0.02 | 0.00 | 63 | 1010.8 |
| 20260508161304 | 72 | 106 | 6.0 | 12.0 | 0.00 | 0.02 | 0.00 | 63 | 1010.7 |
| 20260508160804 | 72 | 58 | 5.0 | 10.0 | 0.00 | 0.02 | 0.00 | 63 | 1010.7 |
| 20260508160305 | 72 | 62 | 4.0 | 8.0 | 0.00 | 0.02 | 0.00 | 62 | 1010.7 |
| 20260508155804 | 72 | 93 | 2.0 | 6.0 | 0.00 | 0.02 | 0.00 | 64 | 1010.6 |
| 20260508155306 | 72 | 56 | 4.0 | 10.0 | 0.00 | 0.02 | 0.00 | 63 | 1010.7 |
| 20260508154805 | 72 | 95 | 3.0 | 6.0 | 0.00 | 0.02 | 0.00 | 65 | 1010.6 |
| 20260508154305 | 71 | 95 | 4.0 | 10.0 | 0.00 | 0.02 | 0.00 | 66 | 1010.5 |
| 20260508153805 | 71 | 80 | 5.0 | 13.0 | 0.00 | 0.02 | 0.00 | 68 | 1010.3 |
| 20260508153304 | 71 | 19 | 4.0 | 9.0 | 0.00 | 0.02 | 0.00 | 67 | 1010.4 |
| 20260508152306 | 71 | 61 | 4.0 | 8.0 | 0.00 | 0.02 | 0.00 | 67 | 1010.4 |
| 20260508151805 | 71 | 61 | 3.0 | 8.0 | 0.00 | 0.02 | 0.00 | 68 | 1010.5 |
| 20260508151304 | 72 | 73 | 6.0 | 9.0 | 0.00 | 0.02 | 0.00 | 67 | 1010.6 |
| 20260508150304 | 72 | 82 | 4.0 | 9.0 | 0.00 | 0.02 | 0.00 | 65 | 1010.6 |
| 20260508145804 | 72 | 66 | 5.0 | 10.0 | 0.00 | 0.02 | 0.00 | 63 | 1010.6 |
| 20260508145306 | 72 | 63 | 6.0 | 13.0 | 0.00 | 0.02 | 0.00 | 61 | 1010.4 |
| 20260508143304 | 71 | 84 | 3.0 | 9.0 | 0.00 | 0.02 | 0.00 | 63 | 1011.1 |
| 20260508142804 | 71 | 77 | 2.0 | 8.0 | 0.00 | 0.02 | 0.00 | 63 | 1011.2 |
| 20260508142306 | 71 | 69 | 5.0 | 8.0 | 0.00 | 0.02 | 0.00 | 62 | 1011.2 |
| 20260508141805 | 71 | 60 | 4.0 | 7.0 | 0.00 | 0.02 | 0.00 | 63 | 1011.2 |
| 20260508141304 | 71 | 63 | 5.0 | 8.0 | 0.00 | 0.02 | 0.00 | 62 | 1011.3 |
| 20260508140805 | 72 | 41 | 4.0 | 12.0 | 0.00 | 0.02 | 0.00 | 62 | 1011.3 |
| 20260508140304 | 72 | 27 | 3.0 | 8.0 | 0.00 | 0.02 | 0.00 | 62 | 1011.3 |
| 20260508135804 | 73 | 51 | 5.0 | 8.0 | 0.00 | 0.02 | 0.00 | 61 | 1011.4 |
| 20260508135306 | 72 | 68 | 2.0 | 7.0 | 0.00 | 0.02 | 0.00 | 63 | 1011.5 |
| 20260508134804 | 72 | 52 | 5.0 | 9.0 | 0.00 | 0.02 | 0.00 | 62 | 1011.5 |
| 20260508134305 | 72 | 354 | 3.0 | 6.0 | 0.00 | 0.02 | 0.00 | 64 | 1011.6 |
| 20260508133805 | 71 | 82 | 2.0 | 7.0 | 0.00 | 0.02 | 0.00 | 65 | 1011.6 |
| 20260508133304 | 70 | 79 | 6.0 | 10.0 | 0.00 | 0.02 | 0.00 | 66 | 1011.7 |
| 20260508132804 | 71 | 66 | 3.0 | 5.0 | 0.00 | 0.02 | 0.00 | 65 | 1011.8 |
| 20260508132306 | 71 | 55 | 3.0 | 9.0 | 0.00 | 0.02 | 0.00 | 66 | 1012.0 |
| 20260508131804 | 71 | 18 | 4.0 | 7.0 | 0.00 | 0.02 | 0.00 | 66 | 1012.0 |
| 20260508131305 | 71 | 9 | 3.0 | 8.0 | 0.00 | 0.02 | 0.00 | 65 | 1012.0 |
| 20260508130805 | 71 | 86 | 3.0 | 7.0 | 0.00 | 0.02 | 0.00 | 67 | 1012.0 |
| 20260508130305 | 70 | 34 | 4.0 | 7.0 | 0.00 | 0.02 | 0.00 | 67 | 1012.1 |
| 20260508125804 | 69 | 92 | 2.0 | 6.0 | 0.00 | 0.02 | 0.00 | 68 | 1012.1 |
| 20260508124805 | 69 | 31 | 4.0 | 9.0 | 0.00 | 0.02 | 0.00 | 68 | 1011.9 |
| 20260508124304 | 69 | 33 | 5.0 | 8.0 | 0.00 | 0.02 | 0.00 | 68 | 1012.0 |
| 20260508123305 | 69 | 342 | 2.0 | 6.0 | 0.00 | 0.02 | 0.00 | 69 | 1012.1 |
| 20260508122804 | 69 | 334 | 4.0 | 6.0 | 0.00 | 0.02 | 0.00 | 68 | 1012.3 |
| 20260508122307 | 69 | 2 | 3.0 | 7.0 | 0.00 | 0.02 | 0.00 | 67 | 1012.3 |
| 20260508121804 | 70 | 347 | 2.0 | 8.0 | 0.00 | 0.02 | 0.00 | 67 | 1012.4 |
| 20260508121305 | 70 | 5 | 3.0 | 6.0 | 0.00 | 0.02 | 0.00 | 67 | 1012.4 |
| 20260508120304 | 69 | 17 | 3.0 | 6.0 | 0.00 | 0.02 | 0.00 | 69 | 1012.4 |
| 20260508115805 | 69 | 14 | 2.0 | 3.0 | 0.00 | 0.02 | 0.00 | 69 | 1012.4 |
| 20260508115306 | 68 | 5 | 4.0 | 6.0 | 0.00 | 0.02 | 0.00 | 71 | 1012.5 |
| 20260508114805 | 67 | 261 | 2.0 | 5.0 | 0.00 | 0.02 | 0.00 | 73 | 1012.5 |
| 20260508114304 | 66 | 258 | 2.0 | 5.0 | 0.00 | 0.02 | 0.00 | 74 | 1012.6 |
| 20260508113805 | 66 | 251 | 2.0 | 3.0 | 0.00 | 0.02 | 0.00 | 73 | 1012.7 |
| 20260508113305 | 66 | 251 | 1.0 | 3.0 | 0.00 | 0.02 | 0.00 | 73 | 1012.8 |
| 20260508112804 | 66 | 251 | 1.0 | 3.0 | 0.00 | 0.02 | 0.00 | 73 | 1012.7 |
| 20260508112307 | 66 | 285 | 3.0 | 6.0 | 0.00 | 0.02 | 0.00 | 73 | 1012.7 |
| 20260508111804 | 66 | 349 | 2.0 | 3.0 | 0.00 | 0.02 | 0.00 | 73 | 1012.6 |
| 20260508111305 | 66 | 348 | 2.0 | 3.0 | 0.00 | 0.02 | 0.00 | 73 | 1012.6 |
| 20260508110805 | 66 | 351 | 2.0 | 5.0 | 0.00 | 0.02 | 0.00 | 73 | 1012.5 |
| 20260508110304 | 66 | 352 | 3.0 | 7.0 | 0.00 | 0.02 | 0.00 | 73 | 1012.2 |
| 20260508105804 | 65 | 336 | 3.0 | 5.0 | 0.00 | 0.02 | 0.00 | 74 | 1012.3 |
| 20260508105306 | 65 | 299 | 2.0 | 5.0 | 0.00 | 0.02 | 0.00 | 74 | 1012.3 |
| 20260508104805 | 65 | 46 | 2.0 | 3.0 | 0.00 | 0.02 | 0.00 | 74 | 1012.3 |
| 20260508104305 | 65 | 47 | 1.0 | 3.0 | 0.00 | 0.02 | 0.00 | 74 | 1012.4 |
| 20260508103304 | 65 | 46 | 2.0 | 3.0 | 0.00 | 0.02 | 0.00 | 74 | 1012.7 |
| 20260508102805 | 65 | 46 | 1.0 | 5.0 | 0.00 | 0.02 | 0.00 | 74 | 1012.7 |
| 20260508102306 | 65 | 42 | 3.0 | 5.0 | 0.00 | 0.02 | 0.00 | 74 | 1012.7 |
| 20260508101305 | 65 | 47 | 3.0 | 3.0 | 0.00 | 0.03 | 0.00 | 74 | 1012.7 |
| 20260508100804 | 65 | 48 | 3.0 | 5.0 | 0.00 | 0.03 | 0.00 | 74 | 1012.8 |
| 20260508100304 | 65 | 47 | 0.0 | 3.0 | 0.00 | 0.03 | 0.00 | 74 | 1013.0 |
| 20260508095804 | 65 | 47 | 1.0 | 2.0 | 0.00 | 0.14 | 0.00 | 73 | 1013.0 |
| 20260508095306 | 65 | 48 | 0.0 | 3.0 | 0.00 | 0.15 | 0.00 | 73 | 1012.9 |
| 20260508094804 | 65 | 43 | 2.0 | 3.0 | 0.00 | 0.15 | 0.00 | 73 | 1012.7 |
| 20260508093805 | 65 | 46 | 2.0 | 5.0 | 0.00 | 0.15 | 0.00 | 73 | 1012.4 |
| 20260508093304 | 65 | 47 | 4.0 | 6.0 | 0.00 | 0.15 | 0.00 | 73 | 1012.3 |
| 20260508092804 | 65 | 242 | 2.0 | 3.0 | 0.00 | 0.15 | 0.00 | 73 | 1012.4 |
| 20260508091805 | 65 | 236 | 1.0 | 3.0 | 0.00 | 0.15 | 0.00 | 72 | 1012.4 |
| 20260508091304 | 65 | 236 | 2.0 | 3.0 | 0.00 | 0.15 | 0.00 | 72 | 1012.4 |
| 20260508090304 | 65 | 236 | 2.0 | 5.0 | 0.00 | 0.15 | 0.00 | 72 | 1012.5 |
| 20260508085804 | 65 | 259 | 2.0 | 6.0 | 0.00 | 0.15 | 0.00 | 73 | 1012.7 |
| 20260508085307 | 65 | 248 | 3.0 | 6.0 | 0.00 | 0.15 | 0.00 | 75 | 1012.7 |
| 20260508084805 | 64 | 266 | 3.0 | 6.0 | 0.00 | 0.15 | 0.00 | 76 | 1012.6 |
| 20260508084304 | 64 | 244 | 2.0 | 5.0 | 0.00 | 0.15 | 0.00 | 77 | 1012.6 |
| 20260508083805 | 64 | 246 | 2.0 | 5.0 | 0.00 | 0.15 | 0.00 | 77 | 1012.5 |
| 20260508083304 | 64 | 241 | 2.0 | 5.0 | 0.00 | 0.15 | 0.00 | 77 | 1012.4 |
| 20260508082805 | 64 | 233 | 3.0 | 6.0 | 0.00 | 0.15 | 0.00 | 77 | 1012.2 |
| 20260508082306 | 63 | 251 | 2.0 | 7.0 | 0.00 | 0.15 | 0.00 | 79 | 1012.2 |
| 20260508081804 | 63 | 285 | 3.0 | 7.0 | 0.00 | 0.15 | 0.00 | 80 | 1012.1 |
| 20260508081304 | 63 | 235 | 2.0 | 5.0 | 0.00 | 0.15 | 0.00 | 81 | 1012.1 |
| 20260508080804 | 62 | 246 | 2.0 | 5.0 | 0.00 | 0.15 | 0.00 | 81 | 1012.2 |
| 20260508080304 | 62 | 259 | 2.0 | 6.0 | 0.00 | 0.15 | 0.00 | 80 | 1012.1 |
| 20260508075804 | 62 | 288 | 2.0 | 3.0 | 0.00 | 0.15 | 0.00 | 80 | 1012.2 |
| 20260508075308 | 62 | 285 | 3.0 | 5.0 | 0.00 | 0.15 | 0.00 | 80 | 1012.1 |
| 20260508074804 | 62 | 329 | 3.0 | 5.0 | 0.00 | 0.15 | 0.00 | 80 | 1012.1 |
| 20260508073804 | 62 | 277 | 5.0 | 6.0 | 0.00 | 0.15 | 0.00 | 81 | 1012.0 |
| 20260508072804 | 61 | 241 | 2.0 | 5.0 | 0.00 | 0.15 | 0.00 | 82 | 1012.2 |
| 20260508072307 | 60 | 265 | 3.0 | 5.0 | 0.00 | 0.15 | 0.00 | 82 | 1012.2 |
| 20260508065804 | 58 | 326 | 3.0 | 5.0 | 0.00 | 0.15 | 0.00 | 85 | 1012.1 |
| 20260508064804 | 58 | 315 | 3.0 | 6.0 | 0.00 | 0.15 | 0.00 | 86 | 1012.0 |
| 20260508063804 | 58 | 352 | 2.0 | 3.0 | 0.00 | 0.15 | 0.00 | 87 | 1011.9 |
| 20260508063304 | 58 | 259 | 1.0 | 3.0 | 0.00 | 0.15 | 0.00 | 87 | 1011.8 |
| 20260508062804 | 58 | 265 | 3.0 | 5.0 | 0.00 | 0.15 | 0.00 | 87 | 1011.7 |
| 20260508062306 | 57 | 291 | 2.0 | 7.0 | 0.00 | 0.15 | 0.00 | 87 | 1011.5 |
| 20260508061804 | 57 | 236 | 2.0 | 3.0 | 0.00 | 0.15 | 0.00 | 87 | 1011.7 |
| 20260508061304 | 57 | 235 | 1.0 | 3.0 | 0.00 | 0.15 | 0.00 | 88 | 1011.7 |
| 20260508060805 | 57 | 236 | 1.0 | 3.0 | 0.00 | 0.15 | 0.00 | 88 | 1011.6 |
| 20260508060304 | 57 | 236 | 2.0 | 3.0 | 0.00 | 0.15 | 0.00 | 88 | 1011.6 |
| 20260508055804 | 57 | 235 | 2.0 | 3.0 | 0.00 | 0.15 | 0.00 | 88 | 1011.5 |
| 20260508055306 | 57 | 238 | 2.0 | 3.0 | 0.00 | 0.15 | 0.00 | 88 | 1011.7 |
| 20260508054804 | 56 | 235 | 1.0 | 3.0 | 0.00 | 0.15 | 0.00 | 88 | 1011.5 |
| 20260508054305 | 56 | 235 | 2.0 | 3.0 | 0.00 | 0.15 | 0.00 | 88 | 1011.4 |
| 20260508053804 | 56 | 246 | 2.0 | 5.0 | 0.00 | 0.15 | 0.00 | 88 | 1011.3 |
| 20260508053304 | 56 | 234 | 3.0 | 6.0 | 0.00 | 0.15 | 0.00 | 88 | 1011.1 |
| 20260508052804 | 56 | 234 | 2.0 | 3.0 | 0.00 | 0.15 | 0.00 | 89 | 1011.1 |
| 20260508052307 | 56 | 238 | 2.0 | 6.0 | 0.00 | 0.15 | 0.00 | 89 | 1011.1 |
| 20260508051804 | 56 | 252 | 2.0 | 3.0 | 0.00 | 0.15 | 0.00 | 89 | 1010.9 |
| 20260508051305 | 56 | 251 | 1.0 | 3.0 | 0.00 | 0.15 | 0.00 | 89 | 1010.7 |
| 20260508050804 | 56 | 250 | 2.0 | 3.0 | 0.00 | 0.15 | 0.00 | 88 | 1010.8 |
| 20260508050304 | 56 | 258 | 2.0 | 5.0 | 0.00 | 0.15 | 0.00 | 88 | 1010.7 |
| 20260508045804 | 56 | 253 | 3.0 | 3.0 | 0.00 | 0.15 | 0.00 | 88 | 1010.7 |
| 20260508045307 | 56 | 252 | 2.0 | 3.0 | 0.00 | 0.15 | 0.00 | 88 | 1010.7 |
| 20260508044804 | 56 | 271 | 2.0 | 3.0 | 0.00 | 0.15 | 0.00 | 88 | 1010.5 |
| 20260508044305 | 56 | 251 | 2.0 | 3.0 | 0.00 | 0.15 | 0.00 | 88 | 1010.6 |
| 20260508043804 | 56 | 251 | 1.0 | 3.0 | 0.00 | 0.15 | 0.00 | 88 | 1010.6 |
| 20260508043304 | 56 | 252 | 1.0 | 3.0 | 0.00 | 0.15 | 0.00 | 88 | 1010.5 |
| 20260508042804 | 56 | 251 | 1.0 | 3.0 | 0.00 | 0.15 | 0.00 | 88 | 1010.5 |
| 20260508041804 | 56 | 237 | 1.0 | 3.0 | 0.00 | 0.15 | 0.00 | 88 | 1010.4 |
| 20260508041304 | 56 | 237 | 2.0 | 6.0 | 0.00 | 0.15 | 0.00 | 88 | 1010.5 |
| 20260508040804 | 56 | 235 | 1.0 | 5.0 | 0.00 | 0.15 | 0.00 | 88 | 1010.6 |
| 20260508035804 | 56 | 244 | 2.0 | 3.0 | 0.00 | 0.15 | 0.00 | 88 | 1010.5 |
| 20260508035306 | 57 | 244 | 1.0 | 3.0 | 0.00 | 0.15 | 0.00 | 88 | 1010.5 |
| 20260508034804 | 57 | 244 | 2.0 | 3.0 | 0.00 | 0.15 | 0.00 | 88 | 1010.5 |
| 20260508034304 | 57 | 244 | 2.0 | 3.0 | 0.00 | 0.15 | 0.00 | 87 | 1010.5 |
| 20260508033804 | 57 | 244 | 1.0 | 3.0 | 0.00 | 0.15 | 0.00 | 87 | 1010.5 |
| 20260508031804 | 57 | 244 | 2.0 | 3.0 | 0.00 | 0.15 | 0.00 | 88 | 1010.5 |
| 20260508031304 | 57 | 244 | 1.0 | 2.0 | 0.00 | 0.15 | 0.00 | 88 | 1010.6 |
| 20260508030804 | 57 | 244 | 2.0 | 3.0 | 0.00 | 0.15 | 0.00 | 88 | 1010.7 |
| 20260508030304 | 57 | 244 | 0.0 | 2.0 | 0.00 | 0.15 | 0.00 | 88 | 1010.7 |
| 20260508025804 | 57 | 244 | 0.0 | 3.0 | 0.00 | 0.15 | 0.00 | 88 | 1010.7 |
| 20260508024804 | 57 | 244 | 1.0 | 5.0 | 0.00 | 0.15 | 0.00 | 88 | 1010.8 |
| 20260508023804 | 57 | 244 | 1.0 | 3.0 | 0.00 | 0.15 | 0.00 | 88 | 1011.0 |
| 20260508023304 | 57 | 244 | 1.0 | 3.0 | 0.00 | 0.15 | 0.00 | 88 | 1011.0 |
| 20260508022804 | 57 | 244 | 1.0 | 3.0 | 0.00 | 0.15 | 0.00 | 88 | 1011.0 |
| 20260508022307 | 57 | 244 | 1.0 | 3.0 | 0.00 | 0.15 | 0.00 | 88 | 1010.9 |
| 20260508021804 | 57 | 244 | 1.0 | 3.0 | 0.00 | 0.15 | 0.00 | 88 | 1010.9 |
| 20260508021304 | 57 | 244 | 1.0 | 3.0 | 0.00 | 0.15 | 0.00 | 88 | 1011.0 |
| 20260508020804 | 57 | 244 | 0.0 | 2.0 | 0.00 | 0.15 | 0.00 | 88 | 1010.9 |
| 20260508020304 | 57 | 244 | 1.0 | 3.0 | 0.00 | 0.15 | 0.00 | 88 | 1010.8 |
| 20260508015804 | 57 | 244 | 0.0 | 1.0 | 0.00 | 0.15 | 0.00 | 88 | 1010.8 |
| 20260508014804 | 57 | 243 | 0.0 | 2.0 | 0.00 | 0.15 | 0.00 | 88 | 1010.8 |
| 20260508014304 | 57 | 243 | 2.0 | 5.0 | 0.00 | 0.15 | 0.00 | 88 | 1011.0 |
| 20260508013304 | 57 | 244 | 1.0 | 3.0 | 0.00 | 0.15 | 0.00 | 88 | 1011.2 |
| 20260508012805 | 57 | 244 | 0.0 | 3.0 | 0.00 | 0.15 | 0.00 | 88 | 1011.2 |
| 20260508011304 | 57 | 244 | 1.0 | 3.0 | 0.00 | 0.15 | 0.00 | 88 | 1011.4 |
| 20260508010804 | 58 | 254 | 2.0 | 3.0 | 0.00 | 0.15 | 0.00 | 88 | 1011.5 |
| 20260508010304 | 58 | 244 | 1.0 | 3.0 | 0.00 | 0.15 | 0.00 | 88 | 1011.6 |
| 20260508005804 | 58 | 243 | 1.0 | 3.0 | 0.00 | 0.15 | 0.00 | 87 | 1011.7 |
| 20260508005306 | 58 | 244 | 0.0 | 3.0 | 0.00 | 0.15 | 0.00 | 87 | 1011.6 |
| 20260508004804 | 58 | 243 | 1.0 | 3.0 | 0.00 | 0.15 | 0.00 | 87 | 1011.6 |
| 20260508004304 | 58 | 243 | 1.0 | 3.0 | 0.00 | 0.15 | 0.00 | 87 | 1011.6 |
| 20260508003804 | 58 | 244 | 2.0 | 5.0 | 0.00 | 0.15 | 0.00 | 87 | 1011.6 |
| 20260508003304 | 58 | 246 | 2.0 | 5.0 | 0.00 | 0.15 | 0.00 | 87 | 1011.6 |
| 20260508002306 | 58 | 243 | 1.0 | 5.0 | 0.00 | 0.15 | 0.00 | 87 | 1011.7 |
| 20260508001804 | 58 | 243 | 1.0 | 3.0 | 0.00 | 0.15 | 0.00 | 87 | 1011.8 |
| 20260508001304 | 58 | 243 | 2.0 | 3.0 | 0.00 | 0.15 | 0.00 | 87 | 1011.9 |